| time (UTC) | temp F | wind direction | speed MPH | gust MPH | rain 1hr in | rain 24hr in | rain mn in | humidity % | barometer mb |
| 20260505153104 | 53 | 323 | 4.0 | 12.0 | 0.00 | 0.05 | 0.05 | 74 | 1007.7 |
| 20260505151557 | 54 | 280 | 4.0 | 13.0 | 0.00 | 0.05 | 0.05 | 68 | 1007.5 |
| 20260505140106 | 56 | 32 | 3.0 | 14.0 | 0.00 | 0.05 | 0.05 | 65 | 1006.5 |
| 20260505124603 | 56 | 254 | 3.0 | 12.0 | 0.00 | 0.05 | 0.05 | 65 | 1004.6 |
| 20260505123113 | 55 | 280 | 2.0 | 8.0 | 0.00 | 0.05 | 0.05 | 72 | 1004.7 |
| 20260505121557 | 55 | 246 | 2.0 | 11.0 | 0.00 | 0.05 | 0.05 | 77 | 1004.5 |
| 20260505114558 | 54 | 281 | 3.0 | 8.0 | 0.00 | 0.05 | 0.05 | 87 | 1004.3 |
| 20260505113104 | 54 | 286 | 3.0 | 12.0 | 0.00 | 0.05 | 0.05 | 88 | 1004.3 |
| 20260505111604 | 54 | 312 | 3.0 | 10.0 | 0.00 | 0.05 | 0.05 | 88 | 1003.7 |
| 20260505101558 | 55 | 286 | 0.0 | 7.0 | 0.00 | 0.05 | 0.05 | 87 | 1003.1 |
| 20260505100057 | 55 | 302 | 0.0 | 6.0 | 0.00 | 0.05 | 0.05 | 87 | 1002.6 |
| 20260505094558 | 55 | 0 | 0.0 | 3.0 | 0.00 | 0.05 | 0.05 | 87 | 1002.5 |
| 20260505093055 | 56 | 226 | 1.0 | 7.0 | 0.00 | 0.05 | 0.05 | 87 | 1002.6 |
| 20260505091619 | 56 | 248 | 1.0 | 11.0 | 0.00 | 0.05 | 0.05 | 87 | 1002.2 |
| 20260505090122 | 56 | 251 | 3.0 | 14.0 | 0.00 | 0.05 | 0.05 | 87 | 1002.3 |
| 20260505084613 | 56 | 207 | 3.0 | 8.0 | 0.00 | 0.05 | 0.05 | 88 | 1002.2 |
| 20260505083108 | 56 | 0 | 2.0 | 10.0 | 0.00 | 0.05 | 0.05 | 88 | 1002.2 |
| 20260505081604 | 56 | 255 | 2.0 | 14.0 | 0.00 | 0.05 | 0.05 | 89 | 1001.5 |
| 20260505080224 | 56 | 0 | 1.0 | 4.0 | 0.00 | 0.05 | 0.05 | 88 | 1001.5 |
| 20260504224556 | 74 | 204 | 1.0 | 14.0 | 0.00 | 0.00 | 0.00 | 46 | 999.8 |
| 20260504223120 | 74 | 276 | 6.0 | 15.0 | 0.00 | 0.00 | 0.00 | 44 | 999.7 |
| 20260504221600 | 74 | 264 | 2.0 | 10.0 | 0.00 | 0.00 | 0.00 | 47 | 999.9 |
| 20260504214600 | 74 | 236 | 3.0 | 15.0 | 0.00 | 0.00 | 0.00 | 46 | 1000.5 |
| 20260504213109 | 75 | 300 | 3.0 | 16.0 | 0.00 | 0.00 | 0.00 | 43 | 1000.5 |
| 20260504211651 | 76 | 214 | 3.0 | 14.0 | 0.00 | 0.00 | 0.00 | 40 | 1000.7 |
| 20260504210058 | 75 | 200 | 4.0 | 16.0 | 0.00 | 0.00 | 0.00 | 38 | 1000.8 |
| 20260504204604 | 74 | 229 | 4.0 | 18.0 | 0.00 | 0.00 | 0.00 | 37 | 1000.9 |
| 20260504203108 | 75 | 208 | 4.0 | 13.0 | 0.00 | 0.00 | 0.00 | 35 | 1001.0 |
| 20260504201611 | 76 | 240 | 3.0 | 19.0 | 0.00 | 0.00 | 0.00 | 33 | 1001.0 |
| 20260504200057 | 77 | 157 | 4.0 | 9.0 | 0.00 | 0.00 | 0.00 | 33 | 1001.2 |
| 20260504194558 | 77 | 272 | 3.0 | 12.0 | 0.00 | 0.00 | 0.00 | 36 | 1001.2 |
| 20260504193107 | 77 | 236 | 5.0 | 12.0 | 0.00 | 0.00 | 0.00 | 32 | 1001.5 |
| 20260504191611 | 76 | 192 | 5.0 | 20.0 | 0.00 | 0.00 | 0.00 | 34 | 1001.5 |
| 20260504190109 | 77 | 302 | 7.0 | 15.0 | 0.00 | 0.00 | 0.00 | 33 | 1001.7 |
| 20260504184556 | 76 | 246 | 4.0 | 19.0 | 0.00 | 0.00 | 0.00 | 32 | 1001.9 |
| 20260504183056 | 76 | 156 | 4.0 | 22.0 | 0.00 | 0.00 | 0.00 | 30 | 1002.1 |
| 20260504181603 | 76 | 255 | 8.0 | 14.0 | 0.00 | 0.00 | 0.00 | 29 | 1002.3 |
| 20260504180057 | 76 | 92 | 4.0 | 13.0 | 0.00 | 0.00 | 0.00 | 31 | 1002.4 |
| 20260504174557 | 75 | 210 | 4.0 | 18.0 | 0.00 | 0.00 | 0.00 | 31 | 1002.5 |
| 20260504173057 | 75 | 188 | 4.0 | 12.0 | 0.00 | 0.00 | 0.00 | 33 | 1002.8 |
| 20260504171556 | 74 | 156 | 4.0 | 18.0 | 0.00 | 0.00 | 0.00 | 38 | 1003.0 |